Vorticity
15 15 16 17 18 19 19 19 19 18 18 18 18 18 18 19 19 19 19 20 20 20 20 20 20 20 20 20 20 19 19 19 19 18 18 18 17 17 16 15 15 15 14 15 16 17 19 21 23 26 29 32 35 38 40 41 42 41 40 39 37 34 31 28 24 21 18 16 14
17 18 19 20 21 22 22 22 22 22 22 23 22 22 22 22 22 22 22 23 23 23 23 23 24 24 24 24 24 24 24 24 24 24 24 24 24 24 24 23 22 22 21 20 19 18 17 16 16 16 16 17 19 21 23 26 29 32 34 37 39 40 40 39 37 34 31 28 25
19 21 22 22 23 23 23 23 23 23 22 22 22 21 20 20 20 19 19 19 19 19 19 19 20 20 20 20 20 21 21 21 21 22 22 23 23 24 25 25 26 26 27 27 26 25 25 24 22 21 19 18 17 16 15 16 16 18 19 21 24 28 31 34 36 38 38 38 36
20 20 20 20 20 20 19 18 17 16 16 15 14 14 13 13 13 12 12 11 11 11 11 11 11 11 11 11 11 12 12 13 13 14 14 15 16 17 17 18 19 21 22 23 24 25 25 26 26 26 25 24 23 21 20 18 17 15 14 14 14 15 17 19 22 24 27 30 32
17 16 15 14 13 12 11 10 9 9 8 7 7 7 6 6 6 6 5 5 5 5 5 4 4 4 4 4 4 4 4 4 5 5 6 6 7 7 8 9 10 11 12 13 14 16 17 18 20 21 23 24 24 24 23 22 21 19 18 16 14 13 12 11 11 12 13 14 16
9 8 7 6 6 5 4 4 4 4 4 4 4 4 4 4 4 4 4 4 4 4 4 4 4 4 4 4 4 3 3 3 2 2 2 2 2 2 3 3 3 4 4 5 6 7 8 10 11 13 15 17 18 20 21 22 22 22 21 20 18 16 14 12 10 10 10 9 9
3 2 2 2 2 2 2 2 3 3 3 4 4 4 4 4 5 5 5 5 5 5 5 5 5 5 5 5 5 5 5 5 4 4 4 3 3 3 2 2 2 2 2 2 3 3 4 4 6 7 8 10 11 13 15 17 19 20 22 22 22 21 19 17 14 13 12 11 10
1 2 2 2 2 3 3 3 4 4 4 4 5 5 5 5 5 5 6 6 6 6 6 6 6 6 6 6 6 6 6 5 5 5 5 4 4 4 3 3 3 2 2 2 2 2 2 2 3 3 4 5 6 7 9 11 14 16 18 21 22 23 23 22 20 18 16 13 12
2 2 3 3 3 4 4 4 4 4 4 5 5 5 5 5 5 5 5 5 5 6 6 6 6 5 5 5 5 5 5 5 4 4 4 4 4 3 3 3 2 2 2 2 2 1 1 1 2 2 2 2 3 4 5 7 9 11 13 16 18 21 23 24 24 22 21 18 16
3 4 4 4 4 4 4 4 4 4 4 5 5 5 5 5 5 5 5 5 5 5 5 5 5 5 5 5 5 4 4 4 4 4 4 3 3 3 2 2 2 2 1 1 1 0 0 0 0 1 1 1 2 2 3 4 6 7 9 11 14 16 19 22 24 24 24 23 21
4 4 4 4 4 4 4 4 5 5 5 5 5 5 5 5 5 5 5 5 5 4 4 4 4 4 4 4 4 4 4 3 3 3 3 3 2 2 2 2 2 2 1 1 1 0 0 0 0 0 0 0 1 1 2 3 4 4 6 7 10 12 15 18 21 23 24 25 25
5 5 5 5 5 5 5 5 5 5 5 5 5 5 5 5 5 5 4 4 4 4 4 4 3 3 3 3 3 3 2 2 2 2 2 2 2 2 2 2 2 2 2 2 2 1 1 1 0 0 0 1 1 1 1 2 2 3 4 5 7 9 11 13 16 19 21 23 24
5 5 5 6 6 6 6 6 5 5 5 5 5 5 5 5 4 4 4 4 4 3 3 3 3 2 2 2 2 2 2 2 2 2 2 2 2 2 2 2 2 2 2 2 2 2 2 2 1 1 1 1 1 2 2 2 2 3 4 4 5 7 8 10 12 15 17 20 22
6 6 6 6 6 6 6 6 6 6 5 5 5 5 5 4 4 4 4 4 3 3 3 3 3 2 2 2 2 2 2 2 2 2 3 3 3 3 3 3 3 3 3 3 3 2 2 2 2 2 2 2 2 2 2 2 3 4 4 4 5 6 7 9 10 12 14 17 19
6 6 6 6 6 6 6 6 6 6 5 5 5 5 5 4 4 4 4 3 3 3 3 3 3 3 3 3 3 3 3 3 3 3 3 3 3 3 4 4 4 4 3 3 3 3 3 3 3 3 3 2 2 2 3 3 4 4 5 6 6 7 8 9 10 11 13 14 16
7 7 7 7 7 7 6 6 6 6 6 5 5 5 4 4 4 4 4 4 4 4 4 4 4 4 4 4 4 4 4 4 4 4 4 4 4 4 4 4 4 4 4 4 4 3 3 3 3 3 3 3 3 3 3 3 4 4 5 6 7 8 9 10 10 11 13 13 15
7 7 7 7 7 7 6 6 6 6 6 5 5 5 5 5 5 4 4 4 4 4 4 4 4 4 4 4 4 4 4 4 4 4 4 4 4 4 4 4 4 4 4 4 4 4 3 3 3 3 3 3 3 3 3 4 4 4 5 6 7 8 10 11 12 12 13 14 15
7 7 7 7 7 7 6 6 6 6 6 6 5 5 5 5 5 5 5 5 5 5 5 5 5 5 5 5 5 5 5 5 5 5 5 5 5 5 5 4 4 4 4 4 4 4 4 3 3 3 3 3 3 3 3 4 4 4 5 6 7 8 10 11 12 13 14 14 15
7 7 7 7 7 6 6 6 6 6 6 6 6 6 6 6 6 6 6 6 6 6 6 6 6 6 6 6 6 6 6 6 6 5 5 5 5 5 5 5 4 4 4 4 4 4 4 3 3 3 3 3 3 3 3 3 4 4 5 6 7 8 10 11 12 13 14 15 15
7 7 7 7 7 7 6 6 6 6 6 6 6 6 6 6 6 6 7 7 7 6 6 6 6 6 6 6 6 6 6 6 6 6 6 5 5 5 5 5 5 5 5 4 4 4 4 4 4 3 3 3 3 3 3 3 4 4 6 6 8 9 10 11 13 13 15 15 16
7 7 7 7 7 7 7 7 7 7 7 7 7 7 7 7 7 7 7 7 7 7 7 7 6 6 6 6 6 6 6 6 6 6 6 6 6 6 5 5 5 5 5 5 4 4 4 4 4 3 3 3 3 3 3 3 4 5 6 7 8 10 11 12 13 14 15 16 16
7 7 7 7 7 7 7 7 7 7 7 7 7 7 7 7 7 7 7 7 7 7 7 7 6 6 6 6 6 6 6 6 6 6 6 6 6 6 6 6 5 5 5 5 5 5 4 4 4 4 3 3 3 3 3 4 4 5 6 7 9 11 12 14 15 15 16 16 17
7 6 6 6 6 6 6 6 6 6 6 6 6 6 6 6 6 6 6 6 6 6 6 6 6 6 6 6 6 6 6 6 6 6 6 6 6 6 6 6 6 6 5 5 5 5 4 4 4 4 4 3 3 3 3 4 4 5 6 8 10 12 13 15 16 16 17 17 18
6 6 6 6 6 6 6 6 6 6 6 6 6 6 6 6 6 6 6 6 6 6 6 6 6 6 6 6 6 6 6 6 6 6 6 6 6 6 6 6 6 6 5 5 5 5 4 4 4 4 4 3 3 3 4 4 5 6 7 9 11 13 15 16 17 18 18 18 18
6 6 6 6 6 6 6 6 6 6 6 6 6 6 6 6 6 6 6 6 6 6 6 6 6 6 6 6 6 6 6 6 6 6 6 6 6 6 6 6 6 6 5 5 5 5 4 4 4 4 3 3 3 3 4 4 6 7 8 10 12 13 15 17 18 19 19 19 18
5 6 6 6 6 6 6 6 6 6 6 6 6 6 6 6 6 6 6 6 6 6 6 6 6 6 6 6 6 6 6 6 6 6 6 6 6 6 6 6 6 6 6 6 5 5 4 4 4 3 3 3 3 4 4 5 6 8 10 12 13 15 16 17 19 20 20 20 20
5 6 6 6 6 6 6 6 7 7 7 7 6 6 6 6 6 6 6 6 6 6 6 6 5 5 5 5 5 5 5 6 6 6 6 6 6 6 6 6 6 6 6 6 5 5 4 4 4 3 3 3 3 4 4 5 7 9 11 13 15 17 18 19 19 20 20 21 21
5 6 6 6 6 6 6 7 7 7 7 7 7 6 6 6 6 6 6 6 6 6 5 5 5 5 5 5 5 5 5 5 6 6 6 6 6 6 6 6 6 6 6 6 6 5 5 4 4 4 3 3 3 4 5 6 8 10 13 15 17 19 20 20 20 20 20 20 20
5 6 6 6 6 6 6 6 6 6 7 7 7 6 6 6 6 6 6 6 6 5 5 5 5 5 5 5 5 5 5 6 6 6 6 6 6 6 6 6 6 6 6 6 6 5 5 4 4 4 3 3 4 4 6 7 9 12 14 17 19 20 21 21 21 21 21 20 20
6 6 6 6 6 6 6 6 6 6 6 6 6 6 6 6 6 6 6 6 6 6 6 6 6 6 6 6 6 6 6 6 6 6 6 6 6 6 6 6 6 6 6 6 6 5 4 4 4 4 3 4 4 5 7 9 11 14 16 19 20 22 22 22 22 22 21 21 20
5 6 6 6 6 6 6 6 6 6 6 6 6 6 6 6 6 6 6 6 6 6 6 6 6 6 6 6 6 6 6 6 6 6 6 7 7 7 6 6 6 6 6 6 5 5 4 4 4 4 4 4 5 6 8 11 13 16 18 20 22 23 23 23 23 23 22 21 20
5 5 5 6 6 6 6 6 6 6 6 6 6 6 6 6 6 6 6 6 6 6 6 6 6 6 6 6 6 6 6 6 6 6 6 7 7 7 6 6 6 6 6 6 5 5 4 4 4 4 4 4 6 8 10 13 15 18 20 22 23 24 24 24 24 23 23 22 21
5 5 5 5 5 6 6 6 6 6 6 6 6 6 6 7 6 6 6 6 6 6 6 6 6 6 6 6 6 6 6 6 6 6 6 7 7 7 6 6 6 6 6 5 5 4 4 4 4 4 4 5 7 10 12 15 17 20 22 23 25 25 25 25 24 24 23 22 21
5 5 5 5 5 5 6 6 6 6 6 6 6 6 7 7 7 6 6 6 6 6 6 6 6 6 6 6 6 6 6 6 6 6 6 6 7 7 6 6 6 6 6 5 5 4 4 3 3 4 5 6 9 11 14 17 19 22 23 24 25 26 26 26 25 24 23 22 21
5 5 5 5 5 5 6 6 6 6 6 6 6 6 7 7 7 7 7 6 6 6 6 6 6 6 6 6 6 6 6 6 6 6 6 6 6 6 6 6 6 6 5 5 4 4 4 3 4 4 6 7 10 13 16 19 21 23 24 25 26 27 27 27 26 25 23 22 20
5 5 5 5 5 5 5 5 6 6 6 6 6 6 6 6 7 7 7 6 6 6 6 6 6 6 6 6 6 6 6 6 6 6 6 6 6 6 6 6 6 5 5 4 4 4 3 3 4 5 6 9 12 15 19 21 23 24 25 26 27 27 27 27 26 25 23 22 20
5 5 5 5 5 5 5 5 5 5 6 6 6 6 6 6 6 7 7 7 6 6 6 6 6 6 6 6 6 6 6 6 6 6 6 6 6 6 6 6 6 5 5 4 4 3 3 4 4 6 8 10 14 18 21 23 24 25 26 27 27 27 27 27 25 24 23 21 20
5 5 5 5 5 5 5 5 5 5 5 5 6 6 6 6 6 6 7 7 7 6 6 6 6 6 6 6 6 6 6 6 6 6 6 6 6 6 6 6 5 5 4 4 4 3 3 4 5 7 10 13 17 20 22 24 24 26 27 27 27 27 27 27 25 23 22 20 19
6 6 6 5 5 5 5 5 5 5 5 5 5 5 6 6 6 6 6 7 7 6 6 6 6 6 6 6 6 6 6 6 6 6 6 6 6 6 6 6 5 5 4 4 3 3 4 5 6 9 13 17 20 22 24 24 25 26 26 27 26 26 26 26 24 22 21 19 17
6 6 6 5 5 5 5 5 4 4 5 5 5 5 5 6 6 6 6 6 6 6 6 6 6 6 6 6 6 6 6 6 6 6 6 6 6 6 6 5 5 4 4 4 3 4 4 6 8 12 16 20 22 24 25 25 25 25 26 27 26 25 24 24 23 21 19 17 16
6 6 6 5 5 5 5 4 4 4 4 4 4 5 5 5 5 6 6 6 6 6 6 6 6 6 6 6 6 6 6 6 6 6 6 6 6 6 5 5 4 4 4 4 4 4 6 8 11 15 19 22 24 26 26 26 25 25 25 26 25 24 22 21 21 20 18 15 14
Height
5685 5685 5685 5685 5684 5684 5683 5683 5682 5682 5681 5681 5680 5680 5679 5678 5677 5677 5676 5675 5674 5672 5671 5670 5669 5668 5666 5665 5664 5663 5662 5661 5660 5659 5658 5657 5656 5655 5654 5653 5653 5652 5651 5651 5650 5649 5649 5648 5648 5647 5646 5646 5645 5644 5643 5642 5641 5640 5639 5638 5638 5637 5636 5636 5635 5635 5634 5634 5633
5684 5684 5683 5683 5683 5682 5682 5681 5681 5681 5680 5679 5679 5678 5677 5677 5676 5675 5674 5673 5672 5671 5670 5668 5667 5666 5665 5664 5663 5661 5660 5659 5658 5657 5656 5655 5654 5653 5652 5651 5651 5650 5649 5649 5648 5647 5647 5646 5646 5645 5644 5644 5643 5642 5641 5640 5638 5637 5636 5635 5634 5633 5632 5631 5631 5630 5629 5628 5627
5683 5682 5682 5682 5682 5681 5681 5681 5680 5679 5679 5678 5677 5677 5676 5675 5675 5674 5673 5671 5671 5669 5668 5667 5666 5665 5664 5662 5661 5660 5659 5658 5657 5656 5655 5654 5653 5652 5651 5650 5649 5648 5647 5647 5646 5646 5645 5644 5643 5643 5642 5641 5640 5639 5638 5637 5636 5634 5633 5632 5631 5630 5629 5627 5626 5626 5625 5623 5622
5682 5681 5681 5681 5681 5681 5680 5680 5679 5678 5678 5677 5676 5675 5675 5674 5673 5672 5671 5670 5669 5668 5667 5666 5665 5664 5662 5661 5660 5659 5658 5657 5656 5655 5653 5652 5651 5651 5650 5649 5648 5647 5646 5645 5644 5643 5643 5642 5641 5640 5639 5638 5637 5636 5635 5634 5633 5631 5630 5629 5628 5627 5626 5625 5623 5622 5621 5619 5618
5681 5681 5681 5681 5680 5680 5679 5678 5678 5677 5676 5676 5675 5674 5673 5673 5672 5671 5670 5669 5668 5667 5666 5665 5663 5662 5661 5660 5659 5658 5657 5656 5655 5654 5652 5651 5650 5649 5648 5647 5646 5645 5644 5643 5642 5641 5641 5640 5639 5638 5637 5636 5635 5633 5632 5631 5629 5628 5627 5626 5625 5623 5622 5621 5620 5619 5617 5616 5615
5681 5681 5680 5680 5679 5679 5678 5677 5677 5676 5676 5675 5674 5673 5672 5671 5671 5670 5669 5668 5667 5666 5664 5663 5662 5661 5660 5659 5658 5656 5656 5654 5653 5652 5651 5650 5649 5648 5647 5646 5645 5643 5642 5641 5640 5639 5638 5637 5636 5635 5634 5633 5632 5631 5629 5628 5626 5625 5624 5622 5621 5620 5618 5617 5616 5614 5613 5611 5611
5680 5680 5679 5679 5678 5678 5677 5676 5676 5675 5674 5674 5673 5672 5671 5671 5670 5669 5668 5666 5666 5664 5663 5662 5661 5660 5659 5657 5656 5655 5654 5653 5652 5651 5650 5649 5647 5646 5645 5644 5643 5642 5641 5639 5638 5637 5636 5635 5634 5633 5631 5630 5629 5627 5626 5625 5623 5622 5621 5619 5618 5616 5614 5613 5611 5610 5609 5607 5606
5679 5679 5678 5678 5677 5676 5676 5675 5675 5674 5673 5672 5672 5671 5670 5669 5668 5667 5666 5665 5664 5663 5662 5661 5660 5658 5657 5656 5655 5654 5652 5651 5650 5649 5648 5647 5646 5644 5643 5642 5641 5640 5638 5637 5636 5635 5634 5632 5631 5630 5629 5627 5626 5625 5623 5622 5620 5619 5618 5616 5614 5613 5611 5609 5607 5606 5605 5603 5602
5678 5678 5677 5677 5676 5676 5675 5674 5673 5673 5672 5671 5670 5670 5669 5668 5667 5666 5665 5664 5663 5661 5661 5659 5658 5657 5656 5655 5653 5652 5651 5650 5649 5647 5646 5645 5644 5642 5641 5640 5639 5637 5636 5635 5633 5632 5631 5630 5628 5627 5626 5625 5623 5622 5621 5619 5617 5616 5615 5613 5611 5609 5607 5605 5603 5601 5600 5598 5597
5677 5677 5676 5676 5675 5674 5674 5673 5672 5671 5671 5670 5669 5668 5667 5666 5665 5664 5663 5662 5661 5660 5659 5658 5657 5656 5654 5653 5652 5651 5650 5648 5647 5646 5644 5643 5642 5641 5639 5638 5636 5635 5634 5632 5631 5629 5628 5627 5625 5624 5623 5621 5620 5619 5617 5616 5614 5613 5611 5610 5608 5606 5604 5602 5600 5598 5596 5594 5592
5676 5676 5675 5675 5674 5673 5672 5671 5671 5670 5669 5668 5667 5666 5666 5665 5664 5663 5662 5661 5660 5659 5657 5656 5655 5654 5653 5651 5650 5649 5648 5646 5645 5644 5642 5641 5640 5639 5637 5636 5634 5633 5631 5630 5628 5627 5625 5624 5622 5621 5619 5618 5616 5615 5613 5612 5611 5609 5607 5606 5604 5603 5601 5599 5596 5594 5592 5590 5588
5675 5675 5674 5673 5672 5672 5671 5670 5669 5669 5668 5667 5666 5665 5664 5663 5662 5661 5660 5659 5658 5657 5656 5655 5653 5652 5651 5650 5648 5647 5646 5645 5643 5642 5641 5639 5638 5636 5635 5633 5632 5631 5629 5627 5626 5624 5623 5621 5619 5618 5616 5614 5613 5611 5610 5608 5606 5605 5603 5601 5600 5598 5596 5594 5592 5590 5588 5586 5584
5674 5673 5673 5672 5671 5671 5670 5669 5668 5667 5666 5666 5665 5664 5663 5661 5661 5660 5658 5657 5656 5655 5654 5653 5652 5651 5649 5648 5646 5645 5644 5642 5641 5640 5638 5637 5636 5634 5632 5631 5629 5628 5626 5625 5623 5621 5620 5618 5616 5615 5613 5611 5609 5607 5606 5604 5602 5600 5598 5596 5595 5593 5591 5589 5587 5585 5583 5581 5579
5673 5672 5671 5671 5670 5669 5669 5668 5667 5666 5665 5664 5663 5662 5661 5660 5659 5658 5657 5656 5655 5653 5652 5651 5650 5648 5647 5646 5645 5643 5642 5640 5639 5637 5636 5635 5633 5631 5630 5628 5627 5625 5623 5622 5620 5618 5617 5615 5613 5611 5609 5607 5606 5603 5601 5600 5597 5596 5594 5591 5590 5587 5585 5583 5581 5579 5577 5575 5573
5672 5671 5671 5670 5669 5668 5667 5666 5666 5664 5663 5662 5661 5660 5659 5658 5657 5656 5655 5654 5653 5651 5650 5649 5648 5646 5645 5644 5642 5641 5640 5638 5636 5635 5634 5632 5631 5629 5627 5626 5624 5622 5621 5619 5617 5615 5614 5612 5610 5608 5606 5604 5602 5600 5597 5595 5593 5591 5589 5587 5585 5582 5580 5577 5575 5573 5571 5569 5567
5671 5670 5669 5669 5668 5667 5666 5665 5664 5663 5662 5661 5660 5659 5658 5656 5655 5654 5653 5652 5651 5649 5648 5647 5646 5644 5643 5641 5640 5638 5637 5636 5634 5632 5631 5629 5627 5626 5624 5622 5621 5619 5617 5615 5614 5612 5610 5608 5606 5604 5602 5600 5598 5596 5593 5591 5589 5586 5584 5582 5579 5577 5575 5572 5570 5567 5565 5563 5561
5670 5669 5668 5667 5666 5666 5665 5663 5662 5661 5660 5659 5658 5657 5656 5655 5654 5652 5651 5650 5649 5647 5646 5645 5643 5642 5640 5639 5637 5636 5634 5633 5631 5630 5628 5626 5624 5623 5621 5619 5617 5615 5613 5611 5610 5608 5606 5604 5602 5600 5598 5596 5593 5591 5589 5586 5584 5581 5579 5576 5574 5571 5569 5566 5564 5561 5559 5557 5555
5669 5668 5667 5666 5665 5664 5663 5662 5661 5660 5659 5658 5656 5655 5654 5653 5652 5651 5649 5648 5646 5645 5644 5642 5641 5639 5638 5636 5635 5633 5631 5630 5628 5626 5625 5623 5621 5619 5617 5615 5613 5611 5610 5607 5606 5603 5601 5599 5597 5595 5593 5591 5588 5586 5584 5581 5578 5576 5573 5571 5568 5565 5563 5560 5558 5555 5553 5551 5548
5667 5666 5665 5665 5664 5662 5661 5661 5659 5658 5657 5656 5655 5653 5652 5651 5650 5648 5647 5646 5644 5643 5641 5640 5638 5637 5635 5633 5632 5630 5629 5627 5625 5623 5621 5620 5618 5616 5614 5612 5610 5608 5606 5604 5601 5599 5597 5595 5593 5590 5588 5586 5583 5581 5578 5576 5573 5570 5567 5565 5562 5559 5556 5553 5551 5548 5546 5543 5541
5666 5665 5664 5663 5662 5661 5660 5659 5658 5656 5655 5654 5653 5651 5650 5649 5648 5646 5645 5643 5642 5641 5639 5637 5636 5634 5632 5631 5629 5627 5626 5624 5622 5620 5618 5616 5614 5612 5610 5608 5606 5604 5601 5600 5597 5595 5593 5591 5588 5586 5583 5581 5578 5576 5573 5571 5568 5565 5562 5559 5556 5553 5550 5547 5544 5541 5538 5536 5533
5664 5663 5662 5661 5660 5659 5658 5657 5656 5655 5653 5652 5651 5650 5648 5647 5646 5644 5643 5641 5640 5638 5636 5635 5633 5631 5630 5628 5626 5624 5622 5621 5619 5617 5615 5613 5611 5608 5606 5604 5602 5600 5597 5595 5593 5591 5588 5586 5584 5581 5579 5576 5574 5571 5568 5566 5563 5560 5556 5553 5550 5547 5544 5540 5537 5534 5531 5529 5526
5662 5661 5661 5659 5658 5657 5656 5655 5654 5653 5651 5650 5649 5647 5646 5645 5643 5642 5640 5639 5637 5636 5634 5632 5631 5629 5627 5625 5623 5621 5619 5617 5615 5613 5611 5609 5607 5605 5602 5600 5598 5596 5593 5591 5589 5586 5584 5581 5579 5576 5574 5571 5568 5566 5563 5560 5557 5554 5551 5547 5544 5540 5537 5534 5531 5527 5524 5521 5519
5661 5660 5659 5658 5657 5656 5654 5653 5652 5651 5650 5648 5647 5645 5644 5642 5641 5639 5638 5636 5634 5633 5631 5629 5627 5626 5624 5622 5620 5618 5616 5614 5612 5610 5607 5605 5603 5601 5599 5596 5594 5591 5589 5587 5584 5582 5579 5577 5574 5571 5569 5566 5563 5560 5557 5554 5551 5548 5545 5541 5538 5534 5530 5527 5523 5520 5517 5514 5511
5659 5658 5657 5656 5655 5654 5653 5651 5650 5649 5647 5646 5645 5643 5641 5640 5638 5637 5635 5633 5632 5630 5628 5626 5625 5623 5621 5619 5617 5615 5613 5611 5609 5606 5604 5602 5600 5597 5595 5592 5590 5587 5585 5582 5580 5577 5574 5572 5569 5566 5564 5561 5558 5555 5551 5548 5545 5541 5538 5535 5531 5528 5524 5520 5516 5513 5510 5507 5504
5658 5657 5656 5654 5653 5652 5651 5650 5648 5647 5646 5644 5642 5641 5639 5638 5636 5634 5633 5631 5629 5628 5626 5624 5622 5620 5618 5616 5614 5612 5610 5608 5606 5603 5601 5598 5596 5593 5591 5588 5585 5582 5580 5577 5574 5572 5569 5566 5563 5561 5558 5556 5553 5549 5546 5542 5539 5535 5531 5528 5525 5521 5517 5514 5510 5506 5503 5500 5496
5656 5655 5654 5653 5651 5650 5649 5648 5646 5645 5644 5642 5641 5639 5637 5636 5634 5632 5631 5629 5627 5625 5623 5621 5619 5617 5615 5613 5611 5608 5606 5604 5601 5599 5597 5594 5591 5589 5586 5583 5581 5578 5575 5572 5569 5566 5563 5560 5557 5555 5552 5549 5546 5544 5540 5537 5533 5529 5525 5521 5518 5514 5511 5507 5504 5500 5496 5493 5490
5654 5653 5652 5651 5650 5648 5647 5646 5644 5643 5641 5640 5638 5637 5635 5633 5631 5630 5628 5626 5624 5622 5620 5618 5616 5613 5611 5609 5606 5604 5602 5600 5597 5595 5592 5590 5587 5584 5582 5579 5576 5573 5570 5567 5564 5561 5558 5555 5552 5549 5545 5542 5540 5537 5534 5530 5526 5523 5519 5514 5510 5506 5503 5499 5496 5493 5490 5486 5483
5653 5651 5650 5649 5648 5646 5645 5644 5642 5641 5639 5638 5636 5634 5632 5631 5628 5626 5625 5622 5620 5618 5616 5614 5611 5609 5607 5605 5602 5600 5598 5595 5593 5590 5588 5585 5582 5580 5577 5574 5571 5568 5566 5562 5559 5556 5553 5549 5546 5543 5539 5536 5533 5530 5527 5523 5520 5516 5511 5507 5503 5499 5495 5491 5488 5485 5482 5479 5476
5651 5650 5648 5647 5646 5644 5643 5641 5640 5638 5637 5635 5633 5631 5629 5627 5625 5623 5621 5619 5617 5615 5613 5611 5608 5606 5604 5601 5599 5596 5594 5591 5589 5586 5584 5581 5578 5575 5572 5570 5567 5564 5561 5558 5554 5551 5548 5544 5541 5537 5534 5530 5526 5523 5520 5516 5512 5508 5504 5500 5496 5491 5487 5483 5480 5476 5474 5471 5468
5649 5648 5646 5645 5644 5642 5641 5639 5637 5636 5634 5632 5630 5628 5626 5624 5622 5621 5618 5616 5614 5612 5610 5608 5606 5603 5601 5598 5596 5593 5591 5588 5585 5583 5580 5577 5574 5571 5568 5565 5562 5559 5556 5553 5549 5546 5542 5539 5535 5531 5527 5524 5520 5516 5512 5509 5505 5501 5496 5492 5488 5483 5479 5475 5472 5468 5465 5462 5460
5647 5646 5645 5643 5642 5640 5639 5637 5635 5633 5631 5630 5628 5626 5624 5622 5620 5618 5616 5614 5612 5610 5607 5605 5603 5601 5598 5596 5593 5590 5587 5585 5582 5579 5576 5573 5570 5567 5564 5561 5557 5554 5551 5547 5544 5540 5537 5533 5529 5525 5521 5517 5513 5509 5505 5501 5497 5492 5488 5484 5480 5476 5471 5467 5464 5461 5457 5454 5451
5645 5644 5643 5641 5640 5638 5636 5635 5633 5631 5629 5628 5626 5624 5622 5620 5618 5616 5614 5611 5609 5607 5605 5602 5600 5597 5595 5592 5589 5586 5584 5581 5578 5575 5572 5569 5566 5562 5559 5556 5552 5549 5546 5542 5538 5535 5531 5527 5523 5519 5515 5511 5506 5502 5498 5493 5489 5485 5480 5476 5471 5467 5463 5459 5456 5453 5449 5446 5443
5643 5642 5641 5639 5638 5636 5634 5633 5631 5629 5627 5626 5624 5622 5620 5618 5616 5613 5611 5609 5606 5604 5602 5599 5597 5594 5591 5589 5586 5583 5580 5577 5574 5571 5567 5564 5561 5558 5554 5551 5547 5544 5540 5536 5533 5529 5525 5521 5517 5512 5508 5504 5499 5495 5491 5486 5481 5477 5473 5468 5464 5460 5455 5451 5448 5445 5441 5438 5435
5641 5640 5639 5637 5636 5634 5632 5631 5629 5627 5625 5623 5621 5619 5617 5615 5613 5611 5608 5606 5603 5601 5598 5596 5593 5591 5588 5585 5582 5579 5576 5573 5570 5566 5563 5560 5556 5553 5549 5546 5542 5538 5535 5531 5527 5523 5519 5515 5510 5506 5502 5497 5492 5488 5483 5479 5474 5470 5465 5461 5456 5452 5448 5444 5440 5437 5434 5431 5427
5640 5638 5637 5635 5634 5632 5631 5629 5627 5625 5623 5621 5619 5617 5615 5612 5610 5608 5605 5603 5600 5597 5595 5592 5589 5587 5584 5581 5578 5575 5572 5569 5566 5562 5559 5556 5552 5548 5545 5541 5537 5533 5529 5525 5521 5517 5512 5508 5504 5499 5495 5490 5486 5481 5476 5471 5467 5462 5458 5454 5449 5445 5441 5437 5433 5430 5426 5423 5420
5638 5636 5635 5633 5632 5630 5628 5626 5624 5622 5621 5618 5616 5614 5612 5609 5607 5605 5602 5599 5597 5594 5591 5589 5586 5583 5580 5577 5574 5571 5568 5565 5561 5558 5555 5551 5547 5544 5540 5536 5531 5527 5523 5519 5515 5511 5506 5501 5497 5492 5488 5483 5478 5474 5469 5464 5460 5455 5451 5446 5442 5438 5434 5430 5426 5423 5420 5416 5413
5636 5635 5633 5631 5630 5628 5626 5624 5622 5620 5618 5616 5613 5611 5609 5606 5604 5601 5599 5596 5594 5591 5588 5586 5582 5580 5576 5573 5570 5567 5564 5561 5557 5553 5550 5546 5543 5539 5535 5531 5527 5522 5518 5514 5509 5505 5500 5495 5490 5485 5481 5476 5471 5466 5461 5456 5452 5447 5443 5439 5435 5431 5427 5423 5419 5416 5413 5410 5407
5634 5632 5631 5629 5627 5625 5623 5621 5619 5617 5615 5613 5611 5608 5606 5604 5601 5599 5596 5593 5591 5588 5585 5582 5579 5576 5573 5570 5566 5563 5559 5556 5552 5549 5545 5542 5538 5534 5531 5526 5522 5517 5513 5508 5503 5498 5493 5488 5483 5478 5472 5467 5463 5458 5453 5448 5444 5439 5435 5431 5427 5423 5420 5416 5412 5409 5406 5404 5401
5631 5630 5628 5626 5625 5623 5621 5619 5617 5615 5612 5610 5608 5606 5603 5601 5598 5595 5593 5590 5587 5584 5581 5579 5576 5572 5569 5566 5562 5559 5555 5552 5548 5545 5541 5537 5533 5529 5526 5521 5517 5512 5507 5502 5497 5492 5486 5481 5475 5470 5464 5459 5454 5449 5445 5440 5435 5431 5427 5423 5419 5416 5412 5409 5406 5403 5400 5397 5395
5629 5627 5626 5624 5622 5620 5618 5616 5614 5612 5610 5607 5605 5603 5600 5597 5595 5592 5589 5586 5584 5581 5578 5575 5572 5569 5566 5562 5559 5555 5551 5548 5544 5540 5536 5532 5528 5524 5520 5516 5511 5507 5502 5496 5491 5486 5480 5474 5468 5462 5456 5451 5446 5441 5436 5431 5427 5423 5419 5416 5412 5408 5405 5402 5400 5397 5394 5391 5389
5626 5625 5623 5621 5619 5617 5615 5613 5611 5609 5607 5604 5602 5600 5597 5594 5591 5589 5586 5583 5580 5577 5574 5571 5568 5565 5562 5559 5555 5552 5548 5544 5540 5536 5532 5528 5524 5520 5515 5511 5506 5501 5496 5491 5485 5479 5473 5467 5461 5455 5449 5443 5437 5432 5428 5424 5419 5415 5411 5408 5405 5401 5398 5395 5393 5391 5388 5385 5382